This demonstration page uses our WeatherBlox Daily Observations layout. Learn more.

Left ArrowRight Arrow

39.08367, -84.50855

Hourly Observations for April 10, 2022

Temp ( °F °C ) Dew Point ( °F °C ) Humidity (%) Winds ( mph kmh ) Pressure ( in mb ) Visibility ( mi km ) Precip ( " mm )
12:53 am 00:53 Partly Cloudy 37 2.8 32 0 82 82 Calm 30.03 1017 10 16 0.00 0.00
1:53 am 01:53 Clear 34 1.1 32 0 92 92 S 3 6 30.03 1017 10 16 0.00 0.00
2:53 am 02:53 Clear 32 0 30 -1.1 92 92 Calm 30.04 1017 10 16 0.00 0.00
3:53 am 03:53 Mostly Cloudy 32 0 30 -1.1 92 92 SSW 6 9 30.04 1017 10 16 0.00 0.00
4:53 am 04:53 Clear 36 2.2 29 -1.7 76 76 S 3 6 30.04 1017 10 16 0.00 0.00
5:53 am 05:53 Clear 30 -1.1 29 -1.7 96 96 Calm 30.05 1018 10 16 0.00 0.00
6:53 am 06:53 Clear 29 -1.7 28 -2.2 96 96 Calm 30.07 1018 10 16 0.00 0.00
7:53 am 07:53 Sunny 30 -1.1 30 -1.1 100 100 Calm 30.10 1019 10 16 0.00 0.00
8:53 am 08:53 Sunny 37 2.8 32 0 82 82 NNE 3 6 30.11 1020 10 16 0.00 0.00
9:53 am 09:53 Sunny 44 6.7 33 0.6 65 65 Calm 30.10 1019 10 16 0.00 0.00
10:53 am 10:53 Sunny 50 10 33 0.6 52 52 VRB 5 7 30.10 1019 10 16 0.00 0.00
11:53 am 11:53 Sunny 54 12.2 32 0 43 43 SW 7 11 30.10 1019 10 16 0.00 0.00
12:53 pm 12:53 Sunny 56 13.3 32 0 40 40 VRB 5 7 30.07 1018 10 16 0.00 0.00
1:53 pm 13:53 Sunny 58 14.4 34 1.1 41 41 VRB 5 7 30.04 1017 10 16 0.00 0.00
2:53 pm 14:53 Sunny 60 15.6 33 0.6 36 36 S 10 17 30.02 1017 10 16 0.00 0.00
3:53 pm 15:53 Sunny 61 16.1 34 1.1 36 36 S 12 19 29.98 1015 10 16 0.00 0.00
4:53 pm 16:53 Sunny 62 16.7 34 1.1 35 35 SSE 8 13 29.96 1014 10 16 0.00 0.00
5:53 pm 17:53 Sunny 61 16.1 33 0.6 35 35 S 10 17 29.93 1014 10 16 0.00 0.00
6:53 pm 18:53 Sunny 61 16.1 32 0 34 34 SSE 14 22 29.92 1013 10 16 0.00 0.00
7:53 pm 19:53 Sunny 59 15 32 0 36 36 SSE 7 11 29.91 1013 10 16 0.00 0.00
8:53 pm 20:53 Clear 57 13.9 32 0 39 39 Calm 29.91 1013 10 16 0.00 0.00
9:53 pm 21:53 Clear 53 11.7 34 1.1 48 48 ENE 3 6 29.90 1013 10 16 0.00 0.00
10:53 pm 22:53 Clear 52 11.1 33 0.6 49 49 Calm 29.89 1012 10 16 0.00 0.00
11:53 pm 23:53 Clear 48 8.9 34 1.1 58 58 W 3 6 29.89 1012 10 16 0.00 0.00

Powered by AerisWeather